EW7119 Weather Reports


Display with metric or nautical units.
time (UTC)temp
F
wind
direction
speed
MPH
gust
MPH
rain 1hr
in
rain 24hr
in
rain mn
in
humidity
%
barometer
mb
20260905083055 58 141 0.0 0.0 0.00 0.00 0.00 58 1002.8
20260905081552 58 141 0.0 0.0 0.00 0.00 0.00 57 1002.8
20260905080058 59 141 0.0 0.0 0.00 0.00 0.00 55 1002.7
20260905074604 59 141 0.0 0.0 0.00 0.00 0.00 53 1002.6
20260905073106 59 141 0.0 0.0 0.00 0.00 0.00 53 1002.6
20260905071547 60 141 0.0 0.0 0.00 0.00 0.00 52 1002.6
20260905070048 61 141 0.0 0.0 0.00 0.00 0.00 50 1002.5
20260905064537 60 141 0.0 0.0 0.00 0.00 0.00 51 1002.3
20260905063006 60 141 0.0 0.0 0.00 0.00 0.00 52 1002.5
20260905061531 60 141 0.0 0.0 0.00 0.00 0.00 53 1002.3
20260905060019 62 141 0.0 0.0 0.00 0.00 0.00 50 1002.2
20260905054551 63 169 0.0 5.0 0.00 0.00 0.00 49 1002.2
20260905053144 63 154 0.0 2.0 0.00 0.00 0.00 49 1002.2
20260905051520 63 162 0.0 6.0 0.00 0.00 0.00 49 1002.1
20260905050055 63 144 0.0 11.0 0.00 0.00 0.00 49 1002.2
20260905044607 63 138 0.0 11.0 0.00 0.00 0.00 50 1002.2
20260905043113 64 150 0.0 12.0 0.00 0.00 0.00 47 1002.4
20260905041531 64 151 1.0 10.0 0.00 0.00 0.00 46 1002.3
20260905040044 64 144 0.0 7.0 0.00 0.00 0.00 45 1002.4
20260905034552 64 157 0.0 8.0 0.00 0.00 0.00 45 1002.4
20260905033059 64 150 0.0 11.0 0.00 0.00 0.00 46 1002.4
20260905031552 64 138 0.0 11.0 0.00 0.00 0.00 45 1002.2
20260905030039 64 135 0.0 2.0 0.00 0.00 0.00 44 1002.3
20260905024525 64 141 0.0 1.0 0.00 0.00 0.00 44 1002.2
20260905023047 64 104 0.0 1.0 0.00 0.00 0.00 45 1002.0
20260905021553 64 155 0.0 6.0 0.00 0.00 0.00 45 1001.8
20260905020108 65 133 0.0 7.0 0.00 0.00 0.00 44 1001.6
20260905014559 66 123 0.0 9.0 0.00 0.00 0.00 43 1001.4
20260905013103 67 132 0.0 16.0 0.00 0.00 0.00 41 1001.4
20260905011617 68 132 2.0 11.0 0.00 0.00 0.00 38 1001.4
20260905010110 69 130 0.0 8.0 0.00 0.00 0.00 36 1001.3
20260905004606 70 143 1.0 11.0 0.00 0.00 0.00 34 1001.4
20260905003108 71 165 0.0 8.0 0.00 0.00 0.00 33 1001.5
20260905001610 72 161 0.0 1.0 0.00 0.00 0.00 31 1001.4
20260905000119 72 142 0.0 7.0 0.00 0.00 0.00 31 1001.5
20260904234612 72 157 1.0 10.0 0.00 0.00 0.00 31 1001.4
20260904233100 72 175 0.0 1.0 0.00 0.00 0.00 30 1001.4
20260904231556 73 168 0.0 0.0 0.00 0.00 0.00 30 1001.2
20260904230053 74 157 0.0 1.0 0.00 0.00 0.00 29 1001.2
20260904224609 74 144 0.0 2.0 0.00 0.00 0.00 29 1001.1
20260904223110 73 133 0.0 1.0 0.00 0.00 0.00 30 1001.2
20260904221506 73 140 0.0 0.0 0.00 0.00 0.00 29 1001.2
20260904220014 72 155 0.0 4.0 0.00 0.00 0.00 31 1001.4
20260904214609 73 175 0.0 7.0 0.00 0.00 0.00 30 1001.5
20260904213108 75 142 0.0 11.0 0.00 0.00 0.00 29 1001.4
20260904211612 75 128 3.0 14.0 0.00 0.00 0.00 28 1001.4
20260904210112 76 166 0.0 9.0 0.00 0.00 0.00 27 1001.6
20260904204502 76 112 0.0 12.0 0.00 0.00 0.00 27 1001.7
20260904203002 76 245 3.0 10.0 0.00 0.00 0.00 27 1001.9
20260904201505 76 270 0.0 2.0 0.00 0.00 0.00 29 1001.9
20260904200124 74 275 0.0 7.0 0.00 0.00 0.00 28 1002.1
20260904194505 71 290 0.0 0.0 0.00 0.00 0.00 34 1002.2
20260904193006 70 210 0.0 0.0 0.00 0.00 0.00 33 1002.4
20260904191514 70 146 0.0 4.0 0.00 0.00 0.00 34 1002.5
20260904190133 70 123 0.0 0.0 0.00 0.00 0.00 36 1002.6
20260904184557 72 329 0.0 6.0 0.00 0.00 0.00 32 1002.7
20260904183045 70 257 0.0 0.0 0.00 0.00 0.00 34 1002.7
20260904181553 70 257 0.0 0.0 0.00 0.00 0.00 35 1003.1
20260904180104 73 185 0.0 7.0 0.00 0.00 0.00 33 1003.2
20260904174523 71 298 0.0 7.0 0.00 0.00 0.00 34 1003.3
20260904173007 71 242 0.0 10.0 0.00 0.00 0.00 34 1003.3
20260904171524 72 173 0.0 9.0 0.00 0.00 0.00 33 1003.3
20260904170045 70 252 0.0 3.0 0.00 0.00 0.00 34 1003.2
20260904164556 69 312 1.0 7.0 0.00 0.00 0.00 34 1003.3
20260904163058 69 290 0.0 2.0 0.00 0.00 0.00 36 1003.3
20260904161551 68 147 1.0 12.0 0.00 0.00 0.00 39 1003.4
20260904160055 66 260 0.0 0.0 0.00 0.00 0.00 40 1003.6
20260904154556 67 257 0.0 0.0 0.00 0.00 0.00 38 1003.7
20260904153050 66 266 0.0 0.0 0.00 0.00 0.00 38 1003.7
20260904151548 65 184 0.0 0.0 0.00 0.00 0.00 41 1003.6
20260904150121 63 128 0.0 0.0 0.00 0.00 0.00 42 1003.6
20260904144533 62 217 0.0 0.0 0.00 0.00 0.00 42 1003.5
20260904143023 61 123 0.0 0.0 0.00 0.00 0.00 46 1003.5
20260904141548 59 123 0.0 0.0 0.00 0.00 0.00 48 1003.5
20260904140056 57 148 0.0 0.0 0.00 0.00 0.00 52 1003.3
20260904134625 55 148 0.0 0.0 0.00 0.00 0.00 54 1003.3
20260904133005 54 148 0.0 0.0 0.00 0.00 0.00 54 1003.0
20260904131520 53 148 0.0 0.0 0.00 0.00 0.00 54 1002.8
20260904130032 53 213 0.0 0.0 0.00 0.00 0.00 52 1002.7
20260904124529 53 213 0.0 0.0 0.00 0.00 0.00 52 1002.5
20260904123052 54 214 0.0 0.0 0.00 0.00 0.00 51 1002.5
20260904121600 53 92 0.0 0.0 0.00 0.00 0.00 51 1002.4
20260904120110 52 92 0.0 0.0 0.00 0.00 0.00 53 1002.3
20260904114504 53 92 0.0 0.0 0.00 0.00 0.00 51 1002.2
20260904113113 53 92 0.0 0.0 0.00 0.00 0.00 50 1002.2
20260904111608 53 92 0.0 0.0 0.00 0.00 0.00 50 1002.3
20260904110059 53 92 0.0 0.0 0.00 0.00 0.00 47 1002.2
20260904104558 53 92 0.0 0.0 0.00 0.00 0.00 47 1002.3
20260904103056 53 92 0.0 0.0 0.00 0.00 0.00 47 1002.1
20260904101602 53 92 0.0 0.0 0.00 0.00 0.00 46 1002.1
20260904100054 53 77 0.0 0.0 0.00 0.00 0.00 46 1001.9
20260904094546 52 97 0.0 0.0 0.00 0.00 0.00 47 1001.8
20260904093106 52 90 0.0 0.0 0.00 0.00 0.00 46 1001.6
20260904091600 53 90 0.0 0.0 0.00 0.00 0.00 46 1001.6
20260904090105 52 90 0.0 0.0 0.00 0.00 0.00 46 1001.6
20260904084510 52 81 0.0 0.0 0.00 0.00 0.00 47 1001.6